RH
33 32 30 30 29 29 30 30 31 32 32 33 33 33 33 33 32 32 31 30 28 27 25 23 21 18 17 16 16 16 16 17 17 18 19 19 20 20 21 21 22 23 24 25 26 27 28 28 29 29 29 30 29 29 28 28 27 27 26 25 25 24 23 22 22 21 21 20 20
32 32 31 31 31 32 33 34 34 35 35 36 36 36 35 34 33 32 31 30 29 28 25 22 20 17 16 16 16 17 17 18 19 20 20 20 21 21 22 22 23 24 25 26 27 27 28 29 29 30 30 30 30 29 29 29 28 28 27 26 26 25 24 23 23 22 22 21 21
33 33 34 34 35 36 37 37 37 37 38 38 38 37 37 36 35 34 32 32 30 28 25 22 19 17 16 16 17 18 19 20 20 21 21 22 22 22 23 23 24 25 26 26 27 28 28 29 29 29 30 30 30 29 29 29 28 28 27 26 26 25 25 24 23 23 22 22 21
36 36 37 38 38 39 40 40 40 40 40 40 39 39 38 37 36 35 34 32 30 28 25 21 19 17 17 17 18 19 20 21 22 22 22 22 23 23 23 24 25 25 26 26 27 28 28 29 29 29 29 29 29 29 29 28 28 28 27 26 26 25 24 24 23 23 22 21 21
38 39 40 41 41 42 42 42 42 41 41 41 40 40 39 38 37 36 34 32 30 27 23 20 18 18 18 19 20 21 22 22 23 23 23 23 23 24 24 24 25 25 26 27 27 27 28 28 28 29 29 28 28 28 28 28 27 27 26 25 25 24 23 23 23 22 21 20 20
40 40 41 42 43 43 44 44 43 42 42 42 41 40 40 39 38 36 34 32 28 25 21 19 19 19 19 20 21 22 23 24 24 24 24 24 24 24 24 25 25 26 26 26 27 27 28 28 28 28 28 28 28 28 27 27 26 25 24 23 23 22 22 21 21 20 20 18 17
40 41 41 42 43 44 44 43 42 42 42 43 42 41 39 38 37 35 32 29 25 23 21 19 20 20 21 22 23 24 24 25 25 25 24 24 24 24 25 25 25 26 26 26 27 27 27 28 28 28 28 27 27 27 26 25 24 23 22 21 20 20 19 18 18 17 17 16 14
41 41 42 42 43 44 44 43 42 42 42 42 41 40 38 37 34 31 28 25 23 21 21 20 21 21 22 23 24 25 25 25 25 25 25 25 25 25 25 25 26 26 26 27 27 27 28 28 28 27 27 26 25 25 24 23 21 20 18 17 17 16 16 15 14 13 13 12 12
41 41 42 43 44 44 43 42 42 41 41 40 39 38 36 33 30 28 25 23 22 21 21 22 22 23 24 25 25 26 26 26 26 26 25 25 25 25 26 26 26 26 27 27 27 27 28 27 27 26 25 24 23 22 21 19 18 16 14 13 12 11 11 11 10 9 9 10 10
41 41 42 42 43 43 42 41 41 40 39 38 36 34 32 29 27 25 23 22 22 22 23 23 24 24 25 26 26 26 27 26 26 26 26 26 26 26 26 27 27 27 27 28 27 27 27 26 25 24 23 22 20 18 17 15 13 12 10 9 8 7 7 7 7 7 7 8 8
42 42 42 42 42 41 40 40 40 40 39 37 34 31 29 26 25 23 23 23 23 24 24 25 25 25 26 27 27 27 27 27 27 27 27 27 27 27 27 27 28 28 27 27 27 26 25 24 22 21 19 18 16 14 13 11 10 8 7 7 6 5 5 6 6 7 7 8 8
43 43 43 42 41 40 39 40 40 40 39 36 33 30 27 25 24 24 24 24 25 25 26 26 26 27 27 27 27 28 28 28 28 28 28 28 28 28 28 28 28 27 27 26 25 24 22 20 19 17 15 14 12 11 9 8 7 6 6 5 5 5 5 5 6 7 8 9 10
46 45 44 43 42 42 42 42 42 41 39 36 32 30 27 25 25 25 25 25 26 26 26 27 27 27 27 28 28 28 28 29 29 29 29 29 29 28 28 27 27 26 25 23 22 20 18 17 15 13 12 10 9 8 7 7 6 6 5 5 5 6 6 6 7 8 9 10 11
47 46 46 45 45 45 46 46 45 43 40 36 33 30 28 26 26 26 26 26 27 27 27 27 28 28 28 28 29 29 29 29 30 30 29 29 28 28 27 26 25 23 22 20 19 17 15 13 12 10 9 8 8 7 7 6 6 6 6 6 6 6 7 7 8 9 10 10 11
47 46 46 46 47 48 49 48 46 43 40 36 33 31 29 28 27 27 27 27 27 28 28 28 28 29 29 29 30 30 30 30 30 29 29 28 27 26 24 23 21 20 18 17 15 13 12 10 9 9 8 7 7 7 7 7 6 6 6 6 7 7 7 8 9 9 10 11 12
45 44 44 45 48 50 50 48 46 43 40 36 33 31 30 29 28 28 28 28 28 28 28 29 29 29 30 30 30 31 30 30 30 29 27 26 24 23 21 20 18 16 15 13 12 11 10 9 8 8 8 7 7 7 7 7 6 6 6 7 7 7 8 9 9 10 11 12 13
43 42 42 44 47 48 49 47 44 41 38 35 33 31 30 29 29 28 28 28 28 29 29 29 30 30 31 31 31 31 30 29 28 27 25 23 21 20 18 16 15 13 12 11 10 9 9 8 8 8 8 8 8 7 7 7 7 7 7 7 7 8 9 9 10 11 11 12 14
42 41 41 43 45 46 45 44 41 38 36 34 33 32 31 30 30 29 29 29 29 29 30 30 31 31 31 31 31 30 29 27 26 24 22 20 18 16 15 14 12 11 10 10 9 9 9 9 8 8 8 8 8 7 7 7 7 7 7 8 8 9 9 10 10 11 12 13 15
42 41 41 42 43 42 41 40 37 36 35 34 33 32 31 31 30 29 29 29 30 30 31 31 31 32 32 31 30 28 27 25 23 21 19 17 15 14 13 11 11 10 10 9 9 9 9 9 9 8 8 8 8 7 7 7 7 7 8 8 8 9 9 10 11 12 14 15 16
42 41 41 41 41 40 38 37 35 34 34 33 33 32 32 31 30 30 30 30 30 31 31 32 32 31 31 30 28 26 24 22 19 17 16 14 13 12 11 10 10 10 9 9 9 9 9 9 8 8 8 8 7 7 7 7 7 8 8 9 9 9 10 11 12 13 15 17 18
42 41 41 41 40 38 37 35 34 34 34 34 33 33 32 31 31 30 31 31 31 32 32 32 31 30 29 27 25 23 21 18 17 15 13 12 11 11 10 10 10 9 9 9 9 9 9 9 8 8 8 8 8 8 8 8 8 8 9 9 10 10 11 12 14 15 17 19 19
42 42 41 41 40 38 36 35 34 34 34 34 34 33 32 31 31 31 31 31 32 32 32 31 30 28 27 24 22 19 17 15 14 13 12 11 11 10 10 10 9 9 9 9 9 9 9 9 8 8 8 8 8 8 8 9 9 9 10 10 11 12 12 14 15 17 18 19 20
43 42 42 41 40 38 37 36 36 35 35 35 34 33 32 32 32 32 32 32 32 32 31 30 28 26 23 21 18 16 15 13 13 12 11 11 10 10 10 10 10 9 9 9 9 9 9 9 9 8 9 9 9 9 10 10 11 12 12 13 13 14 15 16 17 18 19 20 20
42 42 41 41 39 38 37 37 37 37 36 35 34 33 32 32 32 32 32 32 32 31 29 27 25 23 20 18 16 14 13 12 11 11 11 10 10 10 10 9 9 9 9 9 9 9 9 9 9 9 9 10 10 11 12 13 14 14 15 15 16 17 18 19 19 19 20 20 21
41 41 40 40 39 38 38 38 38 37 36 35 34 33 33 32 32 32 32 32 31 29 27 24 22 19 17 15 14 13 12 11 11 11 10 10 10 10 10 9 9 9 9 9 9 9 10 10 10 10 11 11 12 13 14 16 16 17 18 19 20 21 22 22 21 21 22 22 23
40 39 38 38 38 38 39 39 38 37 36 35 34 33 33 32 32 32 31 30 29 26 24 21 19 17 15 14 13 12 12 11 11 10 10 10 9 9 9 9 9 9 9 9 10 10 10 10 11 11 12 13 15 16 17 18 19 20 21 22 23 24 24 24 23 23 24 24 24
38 38 37 38 39 39 40 39 39 37 36 35 34 33 33 32 32 31 30 28 26 23 20 18 16 14 13 13 12 12 11 11 10 10 10 9 9 9 9 9 9 9 9 10 10 10 11 11 11 12 13 15 17 19 20 21 21 22 23 24 25 25 25 25 25 25 25 25 25
38 38 39 39 40 40 40 39 38 37 35 34 34 33 32 32 31 29 28 26 23 20 18 16 14 13 13 12 12 11 11 10 10 10 9 9 9 9 9 9 9 10 10 10 11 11 11 11 12 12 13 15 18 21 22 23 24 25 25 26 26 26 26 26 26 26 26 26 26
39 40 40 41 42 41 40 38 37 36 35 34 33 33 32 31 29 28 25 23 20 18 16 14 14 13 12 12 11 11 10 10 10 9 9 9 9 9 9 9 10 10 11 11 11 12 12 12 13 13 14 15 18 21 23 25 26 26 26 27 27 27 27 27 27 27 27 27 26
41 41 42 42 42 40 39 37 36 35 34 34 33 32 31 30 27 25 23 20 18 16 15 13 13 12 12 12 11 10 10 10 9 9 9 9 9 9 10 10 11 11 11 12 12 12 12 13 13 14 15 16 18 21 24 26 26 27 27 27 27 27 27 27 27 27 27 27 26
42 42 42 42 40 39 37 36 35 34 34 33 32 31 29 27 25 22 20 18 16 15 14 13 13 12 12 11 10 10 10 9 9 9 9 9 10 10 10 11 11 12 12 12 13 13 13 14 14 15 15 16 19 22 24 26 27 27 27 27 27 27 27 27 27 27 27 26 25
43 42 41 40 39 37 36 35 35 34 33 32 31 29 27 25 22 20 18 16 15 14 13 13 13 12 11 11 10 10 9 9 9 9 9 10 10 11 11 12 12 13 13 13 13 14 14 15 15 15 16 17 21 23 25 27 27 27 27 27 27 27 27 26 26 26 26 25 24
42 41 40 38 37 36 35 35 34 33 32 31 29 27 25 22 20 18 16 15 15 14 13 13 12 11 11 10 10 10 9 9 10 10 10 11 11 12 12 13 13 13 14 14 14 15 15 15 16 16 17 19 22 25 26 27 28 27 27 27 26 26 26 26 26 26 25 25 25
41 39 38 37 36 35 35 34 33 32 30 29 27 24 22 20 18 17 16 15 15 14 13 13 12 11 11 10 10 10 9 10 10 11 11 12 12 13 13 13 14 14 14 14 15 16 16 16 16 17 18 21 25 27 28 28 27 27 26 26 25 26 26 26 26 25 25 25 26
39 38 37 36 36 35 34 33 32 30 28 26 24 22 20 18 17 17 16 16 15 14 13 13 12 11 11 10 10 10 10 11 11 12 12 13 13 14 14 14 14 14 15 15 16 16 17 17 17 18 21 24 27 28 28 27 27 26 26 25 25 25 25 25 25 25 25 26 28
38 37 36 36 35 34 33 31 29 28 26 24 22 20 19 18 18 17 17 16 15 14 13 13 12 11 11 10 11 11 11 12 12 13 13 14 14 14 14 14 15 15 15 16 17 17 17 17 18 20 23 27 28 28 27 27 26 26 25 25 25 25 25 25 25 26 26 28 30
37 37 36 35 34 33 31 29 27 25 23 22 20 20 19 19 18 18 17 16 15 14 13 13 12 11 11 11 11 12 12 13 13 14 14 15 15 15 15 15 15 16 16 17 17 17 18 18 19 22 26 29 28 28 27 26 26 25 25 25 25 25 25 25 26 26 28 30 32
37 36 35 34 32 30 28 27 25 23 22 21 20 20 20 20 19 18 17 16 15 14 13 13 12 12 12 12 12 12 13 14 15 15 15 16 16 16 16 16 16 16 17 17 18 18 18 19 21 25 28 29 28 27 26 26 26 25 25 25 25 25 25 26 26 28 30 32 34
37 35 34 32 30 28 26 25 23 22 22 21 21 21 21 20 19 18 17 16 15 14 13 12 12 12 12 12 13 13 14 15 16 16 16 17 17 17 17 17 17 18 18 18 18 19 19 21 24 27 28 28 27 26 26 26 26 26 25 25 25 25 26 26 28 30 33 35 35
36 34 32 30 28 26 25 23 23 22 22 22 22 22 21 21 19 18 17 16 15 14 13 13 13 13 13 13 14 14 15 16 16 17 17 17 17 18 18 18 18 18 19 19 19 20 21 23 26 28 28 28 27 26 26 26 26 26 26 26 26 26 26 27 30 33 36 37 36
34 32 30 28 27 25 24 23 23 23 23 23 23 23 22 20 19 18 17 16 15 14 13 13 13 13 14 14 15 15 16 17 17 18 18 18 18 18 19 19 19 19 20 20 21 21 23 25 27 28 28 28 27 26 26 26 26 26 26 26 26 27 28 30 34 37 39 39 36